Location: Unspecified
(0.0000°N, 0.0000°E)
Time: 07:55:23
(UTC+00:00)

Vanguard 2 - Pass Details

Date: 20 December 2018
Orbit: 553 x 2939 km, 32.9° (Epoch: 16 June)

Event Time Altitude Azimuth Distance (km) Brightness Sun altitude
Rises 01:09:01 0° 315° (NW) 4,381 - -60.8°
Reaches altitude 10° 01:11:33 10° 319° (NW) 3,673 - -60.4°
Maximum altitude 01:21:35 62° 39° (NE) 2,334 - -58.9°
Exits shadow 01:27:47 39° 100° (E) 3,284 10.6 -57.9°
Drops below altitude 10° 01:37:26 10° 115° (ESE) 5,575 12.2 -56.3°
Sets 01:42:16 0° 118° (ESE) 6,732 12.8 -55.4°
